QPF
0.06 0.07 0.08 0.04 0.05 0.05 0.02 0.01 0.01 0.03 0.01 0.02 0.02 0.02 0.01 0.01 0.01 0.00 0.00 0.00 0.01 0.02
0.04 0.02 0.02 0.03 0.04 0.03 0.02 0.01 0.01 0.01 0.02 0.04 0.07 0.05 0.01 0.01 0.01 0.01 0.01 0.01 0.01 0.02
0.04 0.03 0.02 0.02 0.03 0.03 0.02 0.01 0.00 0.01 0.03 0.04 0.05 0.03 0.01 0.01 0.02 0.02 0.00 0.01 0.01 0.01
0.02 0.02 0.02 0.01 0.00 0.00 0.00 0.00 0.00 0.00 0.01 0.02 0.03 0.04 0.02 0.03 0.03 0.03 0.02 0.01 0.01 0.03
0.00 0.00 0.00 0.00 0.00 0.00 0.00 0.00 0.00 0.00 0.02 0.02 0.01 0.01 0.01 0.01 0.03 0.02 0.02 0.03 0.05 0.05
0.00 0.00 0.00 0.00 0.00 0.00 0.00 0.00 0.00 0.00 0.01 0.01 0.01 0.01 0.01 0.02 0.02 0.03 0.03 0.04 0.05 0.05
0.00 0.00 0.00 0.00 0.00 0.00 0.00 0.00 0.00 0.00 0.00 0.00 0.00 0.00 0.00 0.01 0.01 0.03 0.06 0.07 0.06 0.07
0.00 0.00 0.00 0.00 0.00 0.00 0.00 0.00 0.00 0.01 0.01 0.01 0.01 0.01 0.01 0.01 0.02 0.02 0.03 0.06 0.08 0.09
0.00 0.00 0.00 0.00 0.00 0.00 0.00 0.00 0.00 0.00 0.00 0.01 0.01 0.01 0.01 0.02 0.01 0.01 0.01 0.01 0.01 0.01
0.00 0.00 0.00 0.00 0.00 0.00 0.00 0.00 0.00 0.00 0.00 0.00 0.00 0.00 0.00 0.00 0.00 0.00 0.00 0.00 0.00 0.00
0.00 0.00 0.00 0.00 0.00 0.00 0.00 0.00 0.00 0.00 0.00 0.00 0.00 0.00 0.00 0.00 0.00 0.00 0.00 0.00 0.00 0.00
0.00 0.00 0.00 0.00 0.00 0.00 0.00 0.00 0.00 0.00 0.00 0.00 0.00 0.00 0.00 0.00 0.00 0.00 0.00 0.00 0.00 0.00
0.00 0.00 0.00 0.00 0.00 0.00 0.00 0.00 0.00 0.00 0.00 0.00 0.00 0.00 0.00 0.00 0.00 0.00 0.00 0.00 0.00 0.00
0.00 0.00 0.00 0.00 0.00 0.00 0.00 0.00 0.00 0.00 0.00 0.00 0.00 0.00 0.00 0.00 0.00 0.00 0.00 0.00 0.00 0.00
MSLP
1005.42 1005.16 1005.02 1005.36 1006.26 1006.46 1006.23 1005.77 1006.01 1005.67 1005.84 1006.77 1006.49 1007.06 1007.43 1007.55 1008.18 1008.38 1008.41 1008.52 1007.96 1009.06
1007.25 1007.48 1006.92 1007.51 1008.43 1006.50 1008.00 1007.39 1006.81 1006.51 1005.88 1006.43 1006.13 1007.05 1007.19 1007.43 1007.21 1007.54 1007.60 1007.74 1007.84 1008.34
1008.68 1009.15 1009.02 1009.45 1009.18 1009.45 1009.28 1008.57 1007.63 1007.10 1006.32 1005.54 1005.95 1006.88 1006.55 1006.98 1007.01 1006.80 1006.92 1007.07 1007.50 1007.69
1010.97 1010.22 1011.81 1010.62 1011.22 1011.27 1009.88 1008.78 1008.60 1008.55 1007.90 1005.78 1006.17 1006.37 1005.76 1006.37 1006.60 1006.52 1006.48 1006.92 1006.99 1006.77
1011.91 1012.27 1012.40 1011.39 1010.46 1010.26 1010.61 1010.73 1010.57 1010.08 1009.00 1008.68 1008.83 1007.92 1007.31 1006.76 1006.04 1006.18 1006.18 1006.33 1006.60 1006.54
1012.95 1012.42 1011.45 1011.26 1011.62 1011.70 1012.37 1011.87 1011.31 1009.86 1009.68 1010.08 1010.14 1008.96 1008.76 1008.69 1007.80 1006.53 1005.94 1005.96 1006.03 1006.12
1013.17 1011.66 1011.86 1013.12 1012.53 1012.63 1013.34 1012.45 1011.32 1011.47 1011.58 1011.75 1011.73 1011.03 1010.52 1009.58 1008.56 1007.77 1007.08 1005.99 1005.70 1005.83
1013.84 1013.75 1013.22 1013.97 1014.81 1014.23 1013.36 1014.08 1013.49 1013.51 1013.30 1013.19 1012.65 1012.54 1011.27 1010.29 1009.14 1008.48 1007.88 1007.70 1006.73 1005.80
1015.46 1015.54 1015.61 1016.65 1015.90 1015.63 1015.82 1015.90 1015.34 1014.72 1014.53 1014.58 1013.84 1014.40 1012.33 1011.22 1010.68 1010.38 1009.84 1009.64 1008.95 1008.13
1018.00 1017.94 1018.15 1017.87 1017.10 1016.89 1016.99 1016.74 1016.42 1016.18 1015.76 1015.80 1015.03 1015.10 1013.11 1012.99 1011.91 1011.41 1011.44 1011.22 1010.73 1009.59
1020.16 1019.78 1019.55 1019.21 1018.29 1018.19 1018.16 1017.75 1017.72 1017.59 1017.49 1016.81 1016.50 1015.64 1014.92 1013.62 1013.07 1012.83 1012.44 1012.62 1011.99 1010.88
1021.70 1021.15 1020.75 1020.36 1020.00 1019.60 1019.36 1019.10 1018.81 1018.67 1018.21 1017.71 1017.37 1016.79 1015.81 1014.37 1013.76 1013.47 1013.51 1013.59 1013.18 1012.70
1022.86 1022.61 1022.32 1021.80 1021.07 1020.92 1020.72 1020.28 1019.60 1019.32 1019.00 1018.82 1018.29 1017.71 1016.74 1016.10 1015.64 1015.09 1014.45 1013.76 1013.29 1012.53
1023.70 1023.57 1023.29 1022.86 1022.40 1022.10 1021.58 1021.17 1020.71 1020.22 1019.93 1019.61 1019.27 1018.86 1018.52 1018.10 1017.28 1016.72 1015.66 1014.93 1014.28 1013.87
Thickness
5607 5621 5626 5624 5613 5621 5632 5646 5652 5660 5662 5655 5659 5655 5654 5654 5649 5648 5648 5646 5650 5641
5578 5587 5598 5601 5596 5622 5612 5625 5635 5641 5650 5648 5651 5645 5645 5643 5647 5646 5646 5645 5642 5638
5557 5565 5574 5576 5582 5589 5593 5605 5618 5627 5637 5644 5643 5635 5639 5639 5639 5640 5642 5640 5635 5635
5535 5548 5540 5547 5554 5557 5577 5592 5598 5603 5610 5630 5631 5630 5636 5635 5633 5633 5636 5632 5631 5633
5520 5524 5528 5538 5554 5560 5561 5566 5572 5577 5586 5591 5594 5603 5610 5624 5628 5627 5628 5627 5623 5625
5507 5520 5534 5540 5539 5541 5539 5544 5551 5565 5568 5568 5570 5583 5585 5589 5598 5613 5618 5618 5617 5618
5504 5523 5526 5516 5523 5524 5519 5527 5539 5539 5540 5542 5544 5552 5558 5569 5577 5585 5594 5606 5609 5609
5491 5496 5504 5500 5494 5501 5509 5501 5507 5510 5514 5517 5524 5526 5539 5547 5559 5568 5576 5578 5589 5597
5471 5474 5477 5465 5476 5481 5479 5479 5485 5491 5495 5496 5502 5497 5517 5527 5533 5539 5545 5548 5555 5563
5447 5450 5450 5453 5462 5463 5462 5465 5469 5472 5477 5477 5483 5483 5500 5502 5513 5518 5518 5521 5526 5537
5426 5431 5433 5437 5446 5447 5446 5449 5449 5451 5452 5458 5461 5466 5473 5485 5491 5493 5497 5496 5502 5512
5412 5418 5422 5425 5428 5431 5432 5433 5434 5434 5438 5442 5444 5446 5453 5466 5472 5475 5474 5475 5478 5481
5401 5402 5404 5409 5416 5416 5416 5419 5424 5424 5425 5424 5427 5429 5435 5439 5441 5445 5452 5458 5462 5468
5389 5389 5391 5394 5397 5398 5401 5404 5405 5408 5409 5410 5410 5410 5411 5412 5415 5418 5426 5431 5437 5441